When you browse on this site, cookies collect data to enhance your experience and personalize the content and advertising you see.
Visit our Privacy Policy to learn more. By continuing to use the site, you agree to this use of cookies and data.
  • In Latvia
  • List of Countries
  • For 7 days
  • Water Temperature
  • Satellite Maps
  • Weather Map
  • Weather Widgets
  • user-avatar
    Login

    Hourly Weather Aizpute

    Today, 10 December, Monday

    Time Temperature Precipitation Wind Pressure Humidity
    00:00 +2°C° 0.2 mm 3 mps 735 mmHg 94%
    01:00 +2°C° 0 mm 3 mps 735 mmHg 95%
    02:00 +3°C° 0.1 mm 2 mps 736 mmHg 95%
    03:00 +3°C° 0.1 mm 2 mps 736 mmHg 96%
    04:00 +3°C° 0.1 mm 2 mps 736 mmHg 96%
    05:00 +2°C° 0.1 mm 3 mps 736 mmHg 96%
    06:00 +2°C° 0.1 mm 3 mps 737 mmHg 96%
    07:00 +2°C° 0 mm 3 mps 737 mmHg 96%
    08:00 +2°C° 0.2 mm 3 mps 738 mmHg 94%
    09:00 +2°C° 0.2 mm 3 mps 738 mmHg 91%
    10:00 +1°C° 0.2 mm 4 mps 739 mmHg 89%
    11:00 +2°C° 0 mm 3 mps 739 mmHg 86%
    12:00 +2°C° 0 mm 3 mps 740 mmHg 83%
    13:00 +2°C° 0 mm 3 mps 740 mmHg 80%
    14:00 +2°C° 0 mm 3 mps 741 mmHg 82%
    15:00 +2°C° 0 mm 3 mps 741 mmHg 83%
    16:00 +2°C° 0 mm 2 mps 742 mmHg 84%
    17:00 +2°C° 0 mm 2 mps 742 mmHg 84%
    18:00 +2°C° 0 mm 2 mps 742 mmHg 84%
    19:00 +2°C° 0 mm 2 mps 743 mmHg 85%
    20:00 +2°C° 0 mm 2 mps 743 mmHg 85%
    21:00 +3°C° 0 mm 1 mps 744 mmHg 85%
    22:00 +3°C° 0 mm 1 mps 744 mmHg 85%
    23:00 +3°C° 0 mm 1 mps 745 mmHg 85%

    Tomorrow, 11 December, Tuesday

    Time Temperature Precipitation Wind Pressure Humidity
    00:00 +3°C° 0 mm 1 mps 745 mmHg 86%
    01:00 +3°C° 0 mm 1 mps 745 mmHg 87%
    02:00 +2°C° 0 mm 1 mps 746 mmHg 88%
    03:00 +2°C° 0 mm 1 mps 746 mmHg 89%
    04:00 -1°C° 0 mm 2 mps 747 mmHg 90%
    05:00 -1°C° 0 mm 2 mps 747 mmHg 90%
    06:00 -1°C° 0 mm 2 mps 748 mmHg 90%
    07:00 -1°C° 0 mm 2 mps 748 mmHg 90%
    08:00 -1°C° 0 mm 2 mps 749 mmHg 89%
    09:00 +1°C° 0 mm 2 mps 750 mmHg 87%
    10:00 +1°C° 0 mm 2 mps 750 mmHg 86%
    11:00 +2°C° 0 mm 1 mps 751 mmHg 84%
    12:00 +2°C° 0 mm 1 mps 752 mmHg 83%
    13:00 +3°C° 0 mm 1 mps 752 mmHg 82%
    14:00 +2°C° 0 mm 1 mps 753 mmHg 84%
    15:00 +1°C° 0 mm 2 mps 753 mmHg 86%
    16:00 -1°C° 0 mm 2 mps 754 mmHg 88%
    17:00 -1°C° 0 mm 2 mps 754 mmHg 89%
    18:00 -1°C° 0 mm 2 mps 755 mmHg 90%
    19:00 -1°C° 0 mm 2 mps 755 mmHg 91%
    20:00 -1°C° 0 mm 2 mps 756 mmHg 92%
    21:00 -1°C° 0 mm 2 mps 756 mmHg 93%
    22:00 0°C° 0 mm 3 mps 757 mmHg 94%
    23:00 0°C° 0 mm 3 mps 757 mmHg 94%

    Day after tomorrow, 12 December, Wednesday

    Time Temperature Precipitation Wind Pressure Humidity
    00:00 0°C° 0 mm 3 mps 758 mmHg 94%
    01:00 0°C° 0 mm 3 mps 758 mmHg 94%
    02:00 0°C° 0 mm 3 mps 758 mmHg 94%
    03:00 0°C° 0 mm 3 mps 759 mmHg 94%
    04:00 -1°C° 0 mm 4 mps 759 mmHg 94%
    05:00 -1°C° 0 mm 4 mps 759 mmHg 93%
    06:00 -1°C° 0 mm 4 mps 760 mmHg 93%
    07:00 -1°C° 0 mm 4 mps 760 mmHg 93%
    08:00 -1°C° 0 mm 4 mps 761 mmHg 92%
    09:00 0°C° 0 mm 4 mps 761 mmHg 91%
    10:00 0°C° 0 mm 4 mps 761 mmHg 90%
    11:00 0°C° 0 mm 4 mps 762 mmHg 89%
    12:00 0°C° 0 mm 4 mps 762 mmHg 89%
    13:00 0°C° 0 mm 4 mps 762 mmHg 88%
    14:00 0°C° 0 mm 4 mps 762 mmHg 89%
    15:00 0°C° 0 mm 4 mps 762 mmHg 90%
    16:00 -1°C° 0 mm 4 mps 763 mmHg 90%
    17:00 -1°C° 0 mm 4 mps 763 mmHg 90%
    18:00 -1°C° 0 mm 4 mps 763 mmHg 90%
    19:00 -1°C° 0 mm 4 mps 764 mmHg 90%
    20:00 -1°C° 0 mm 4 mps 764 mmHg 90%
    21:00 -1°C° 0 mm 4 mps 764 mmHg 90%
    22:00 -2°C° 0 mm 4 mps 764 mmHg 89%
    23:00 -2°C° 0 mm 4 mps 764 mmHg 88%

    13 December, Thursday

    Time Temperature Precipitation Wind Pressure Humidity
    00:00 -2°C° 0 mm 4 mps 764 mmHg 87%
    01:00 -2°C° 0 mm 4 mps 764 mmHg 86%
    02:00 -2°C° 0 mm 4 mps 764 mmHg 85%
    03:00 -2°C° 0 mm 4 mps 764 mmHg 83%
    04:00 -2°C° 0 mm 5 mps 764 mmHg 82%
    05:00 -2°C° 0 mm 5 mps 764 mmHg 82%
    06:00 -2°C° 0 mm 5 mps 764 mmHg 81%
    07:00 -2°C° 0 mm 5 mps 764 mmHg 81%
    08:00 -2°C° 0 mm 5 mps 764 mmHg 80%
    09:00 -2°C° 0 mm 5 mps 764 mmHg 79%
    10:00 -2°C° 0 mm 5 mps 764 mmHg 78%
    11:00 -2°C° 0 mm 5 mps 764 mmHg 78%
    12:00 -2°C° 0 mm 5 mps 764 mmHg 78%
    13:00 -2°C° 0 mm 5 mps 764 mmHg 77%
    14:00 -2°C° 0 mm 5 mps 764 mmHg 78%
    15:00 -2°C° 0 mm 5 mps 764 mmHg 78%
    16:00 -3°C° 0 mm 4 mps 764 mmHg 79%
    17:00 -3°C° 0 mm 4 mps 764 mmHg 79%
    18:00 -3°C° 0 mm 4 mps 764 mmHg 79%
    19:00 -3°C° 0 mm 4 mps 764 mmHg 79%
    20:00 -3°C° 0 mm 4 mps 765 mmHg 80%
    21:00 -3°C° 0 mm 4 mps 765 mmHg 80%
    22:00 -3°C° 0 mm 4 mps 765 mmHg 81%
    23:00 -4°C° 0 mm 4 mps 765 mmHg 80%

    14 December, Friday

    Time Temperature Precipitation Wind Pressure Humidity
    00:00 -4°C° 0 mm 4 mps 765 mmHg 80%
    01:00 -4°C° 0 mm 4 mps 765 mmHg 79%
    02:00 -4°C° 0 mm 4 mps 765 mmHg 79%
    03:00 -4°C° 0 mm 3 mps 765 mmHg 79%
    04:00 -4°C° 0 mm 3 mps 765 mmHg 79%
    05:00 -4°C° 0 mm 3 mps 766 mmHg 80%
    06:00 -4°C° 0 mm 3 mps 766 mmHg 80%
    07:00 -4°C° 0 mm 3 mps 766 mmHg 81%
    08:00 -4°C° 0 mm 3 mps 766 mmHg 80%
    09:00 -2°C° 0 mm 3 mps 766 mmHg 80%
    10:00 -2°C° 0 mm 3 mps 767 mmHg 79%
    11:00 -2°C° 0 mm 3 mps 767 mmHg 79%
    12:00 -2°C° 0 mm 3 mps 767 mmHg 78%
    13:00 -2°C° 0 mm 3 mps 767 mmHg 77%
    14:00 -2°C° 0 mm 3 mps 767 mmHg 78%
    15:00 -2°C° 0 mm 3 mps 768 mmHg 78%
    16:00 -2°C° 0 mm 3 mps 768 mmHg 79%
    17:00 -2°C° 0 mm 3 mps 768 mmHg 79%
    18:00 -2°C° 0 mm 2 mps 768 mmHg 80%
    19:00 -2°C° 0 mm 2 mps 768 mmHg 80%
    20:00 -3°C° 0 mm 2 mps 769 mmHg 81%
    21:00 -3°C° 0 mm 2 mps 769 mmHg 82%
    22:00 -3°C° 0 mm 2 mps 769 mmHg 83%
    23:00 -3°C° 0 mm 2 mps 769 mmHg 84%

    15 December, Saturday

    Time Temperature Precipitation Wind Pressure Humidity
    00:00 -3°C° 0 mm 2 mps 769 mmHg 85%
    01:00 -3°C° 0 mm 2 mps 769 mmHg 86%
    02:00 -3°C° 0 mm 2 mps 770 mmHg 87%
    03:00 -3°C° 0 mm 2 mps 770 mmHg 87%
    04:00 -3°C° 0 mm 2 mps 770 mmHg 87%
    05:00 -3°C° 0 mm 2 mps 770 mmHg 87%
    06:00 -3°C° 0 mm 2 mps 770 mmHg 87%
    07:00 -3°C° 0 mm 2 mps 770 mmHg 86%
    08:00 -3°C° 0 mm 2 mps 770 mmHg 85%
    09:00 -3°C° 0 mm 2 mps 771 mmHg 84%
    10:00 -2°C° 0 mm 2 mps 771 mmHg 82%
    11:00 -2°C° 0 mm 2 mps 771 mmHg 81%
    12:00 -2°C° 0 mm 2 mps 771 mmHg 81%
    13:00 -2°C° 0 mm 2 mps 771 mmHg 80%
    14:00 -2°C° 0 mm 2 mps 771 mmHg 82%
    15:00 -3°C° 0 mm 2 mps 771 mmHg 83%
    16:00 -4°C° 0 mm 3 mps 771 mmHg 85%
    17:00 -4°C° 0 mm 3 mps 771 mmHg 85%
    18:00 -4°C° 0 mm 3 mps 771 mmHg 84%
    19:00 -4°C° 0 mm 3 mps 771 mmHg 84%
    20:00 -4°C° 0 mm 3 mps 771 mmHg 84%
    21:00 -4°C° 0 mm 3 mps 771 mmHg 84%
    22:00 -4°C° 0 mm 3 mps 771 mmHg 84%
    23:00 -5°C° 0 mm 3 mps 771 mmHg 85%
    Show more